AirNav   Everest Fuels
 
 729 users online  

W00 Freeway Airport
Bowie, Maryland, USA

GOING TO BOWIE?


FAA INFORMATION EFFECTIVE 09 SEPTEMBER 2021

Location

FAA Identifier: W00
Lat/Long: 38-56-28.8670N 076-46-20.5790W
38-56.481117N 076-46.342983W
38.9413519,-76.7723831
(estimated)
Elevation: 168.1 ft. / 51.2 m (surveyed)
Variation: 10W (1995)
From city: 2 miles NW of BOWIE, MD
Time zone: UTC -4 (UTC -5 during Standard Time)
Zip code: 20721

Airport Operations

Airport use: Open to the public
Activation date: 06/1961
Control tower: no
ARTCC: WASHINGTON CENTER
FSS: LEESBURG FLIGHT SERVICE STATION
NOTAMs facility: DCA (NOTAM-D service available)
Attendance: 0800-DARK
UNATNDD MAJOR HOLIDAYS.
Wind indicator: lighted
Segmented circle: yes
Lights: ACTVT MIRL RY 18/36 & PAPI RYS 18 & 36 - CTAF.
Beacon: white-green (lighted land airport)
Operates sunset to sunrise.

Airport Communications

CTAF/UNICOM: 123.075
POTOMAC APPROACH: 128.0 ;DC SFRA
POTOMAC DEPARTURE: 128.0 ;DC SFRA
IRONS STAR: 126.4
TIKEE STAR: 120.45
WX AWOS-3 at CGS (7 nm W): 121.225 (301-864-5497)
WX AWOS-3 at FME (9 nm N): 123.925
WX ASOS at DCA (14 nm SW): 132.65 (703-418-1177)
WX ASOS at BWI (15 nm N): PHONE 410-691-1278

Nearby radio navigation aids

VOR radial/distance  VOR name  Freq  Var
ADWr039/9.2ANDREWS VORTAC113.1010W
DCAr077/13.3WASHINGTON VOR/DME111.0009W
OTTr005/14.2NOTTINGHAM VORTAC113.7010W
BALr212/14.7BALTIMORE VORTAC115.1011W
AMLr097/32.4ARMEL VOR/DME113.5008W
EMIr172/34.6WESTMINSTER VORTAC117.9008W
FDKr143/(39.8)FREDERICK VOR109.0008W

 
NDB name  Hdg/Dist  Freq  Var  ID
OXONN060/15.933211WDCA -.. -.-. .-
GEORGETOWN097/16.432309WGTN --. - -.
ELLICOTT190/20.837111WFND ..-. -. -..
DAVEE052/23.022309WDAA -.. .- .-

Airport Services

Fuel available: 100LL
100LL:24 HR SELF SERVE 100LL AVBL W/ CREDIT CARD.
Parking: tiedowns
Airframe service: MAJOR
Powerplant service: MAJOR
Bottled oxygen: NONE
Bulk oxygen: NONE

Runway Information

Runway 18/36

Dimensions: 2420 x 40 ft. / 738 x 12 m
Surface: asphalt, in fair condition
Runway edge lights: medium intensity
RUNWAY 18  RUNWAY 36
Latitude: 38-56.678667N38-56.285833N
Longitude: 076-46.386167W076-46.299667W
Elevation: 168.1 ft.151.6 ft.
Traffic pattern: leftright
Runway heading: 180 magnetic, 170 true000 magnetic, 350 true
Displaced threshold: no230 ft.
Markings: nonprecision, in fair conditionnonprecision, in fair condition
Visual slope indicator: 2-light PAPI on right (6.00 degrees glide path)2-light PAPI on left (5.50 degrees glide path)
Touchdown point: yes, no lightsyes, no lights
Obstructions: 143 ft. pline, marked and lighted, 2608 ft. from runway, 16:1 slope to clear
+7 FT ROAD AT 115 FT OUT, OB.
90 ft. trees, 452 ft. from runway, 146 ft. left of centerline, 2:1 slope to clear
APCH RATIO 15:1 TO DSPLCD THLD AT CNTRLN.

Airport Ownership and Management from official FAA records

Ownership: Privately-owned
Owner: FREEWAY AIRPORT INC.
3900 CHURCH RD
BOWIE, MD 20721
Phone 301-390-6424
Manager: MATTHEW LINDQUIST
3900 CHURCH RD
MITCHELLVILLE, MD 20716
Phone 301-390-6424

Airport Operational Statistics

Aircraft based on the field: 77
Single engine airplanes: 74
Multi engine airplanes: 2
Ultralights: 1
    
Aircraft operations: avg 88/day *
93% local general aviation
6% transient general aviation
<1% military
<1% air taxi
* for 12-month period ending 01 September 2020

Additional Remarks

TPA 1000 FT MSL (832 FT AGL) FOR ACFT LESS THAN 4000 LBS MAX GWT; TPA 1200 FT MSL (1032 FT AGL) FOR ACFT GREATER THAN 4000 LBS.
-15 FT DROP 80 FT FROM APCH TO RWY 36.
-7 FT DROP 50 FT FM APCH END RWY 18.
LGTD ANTENNA 135 FT AGL 600 FT NW AER 18.
FOR CD CTC POTOMAC APCH AT 866-599-3874.
TWY RUNUP AREA FOR RWY 36 CLSD

Instrument Procedures

NOTE: All procedures below are presented as PDF files. If you need a reader for these files, you should download the free Adobe Reader.

NOT FOR NAVIGATION. Please procure official charts for flight.
FAA instrument procedures published for use from 09 September 2021 at 0901Z to 07 October 2021 at 0900Z.

 
STARs - Standard Terminal Arrivals
TIKEE THREE (RNAV)   download (232KB)
 
IAPs - Instrument Approach Procedures
RNAV (GPS) RWY 18   download (219KB)
RNAV (GPS) RWY 36   download (223KB)
NOTE: Special Take-Off Minimums/Departure Procedures apply   download (245KB)

Other nearby airports with instrument procedures:

KCGS - College Park Airport (7 nm W)
KFME - Tipton Airport (9 nm N)
KADW - Joint Base Andrews (9 nm SW)
KANP - Lee Airport (10 nm E)
KDCA - Ronald Reagan Washington National Airport (14 nm SW)
W32 - Washington Executive Airport/Hyde Field (14 nm SW)
KVKX - Potomac Airfield (14 nm SW)
KBWI - Baltimore/Washington International Thurgood Marshall Airport (15 nm N)
 
Loc | Ops | Rwys | IFR | FBO | Links
Com | Nav | Svcs | Stats | Notes
Area around W00 (Freeway Airport)
 
Road maps at: MapQuest Bing Google
 
Aerial photo
WARNING: Photo may not be current or correct
Aerial photo of W00 (Freeway Airport)
Photo taken 19-Oct-2016
looking northeast.

Do you have a better or more recent aerial photo of Freeway Airport that you would like to share? If so, please send us your photo.

 
Sectional chart

 
Airport distance calculator
Flying to Freeway Airport? Find the distance to fly.

From to W00

Sunrise and sunset
Times for 28-Sep-2021
 Local
(UTC-4)
 Zulu
(UTC)
Morning civil twilight06:3510:35
Sunrise07:0111:01
Sunset18:5422:54
Evening civil twilight19:2123:21

Current date and time
Zulu (UTC)  28-Sep-2021 11:44:48
Local (UTC-4)  28-Sep-2021 07:44:48
 
METAR
KCGS 
7nm W 
281135Z AUTO 00000KT 10SM CLR 15/14 A2992 RMK AO1 T01460135
KFME 
9nm N 
281135Z AUTO 00000KT 10SM CLR 13/13 A2994 RMK AO1
KADW 
9nm SW 
281056Z AUTO 22004KT 10SM CLR 17/12 A2989 RMK AO2 SLP127 T01650124 $
KDCA 
13nm SW 
281052Z 21004KT 10SM SCT250 18/14 A2992 RMK AO2 SLP129 T01780139
KNAK 
14nm E 
281054Z AUTO 00000KT 10SM CLR 18/13 A2990 RMK AO2 SLP125 T01780128
KBWI 
14nm N 
281054Z 24003KT 10SM FEW060 SCT110 SCT180 17/13 A2989 RMK AO2 SLP121 T01720133
TAF
KADW 
9nm SW 
280900Z 2809/2915 24005KT 9999 SCT120 BKN250 QNH2985INS BECMG 2815/2816 26010KT 9999 SCT040 BKN120 BKN250 QNH2982INS BECMG 2819/2820 28010G15KT 9999 -SHRA VCTS FEW035CB BKN040 BKN120 BKN250 QNH2980INS TEMPO 2820/2901 28015G30KT 6000 -TSRA BKN035CB OVC050 BECMG 2901/2902 34008KT 9999 NSW SCT040 SCT250 QNH2985INS BECMG 2907/2908 02008KT 9999 BKN035 BKN120 QNH2992INS BECMG 2912/2913 01010G15KT 9999 FEW035 FEW120 QNH3002INS TX27/2820Z TN16/2809Z
KDCA 
13nm SW 
280904Z 2809/2912 21004KT P6SM SKC FM281300 23006KT P6SM SCT110 FM282000 29007KT P6SM VCTS BKN080CB FM290000 35004KT P6SM BKN040 FM290300 36005KT P6SM SCT250
KBWI 
14nm N 
280904Z 2809/2912 23003KT P6SM SKC FM281500 27007KT P6SM SCT080 FM282000 29008KT P6SM VCTS BKN040CB FM290000 32004KT P6SM BKN110 FM290400 35006KT P6SM SCT060
NOTAMs
Click for the latest NOTAMs
NOTAMs are issued by the DoD/FAA and will open in a separate window not controlled by AirNav.

 

 
 

FBO, Fuel Providers, and Aircraft Ground Support

  
 Business Name 
 
 Contact 
 
 Services / Description 
 
Fuel Prices
 
Comments
  
Freeway Aviation 301-390-6424
no information available

If you are affiliated with Freeway Aviation and would like to show here your services, contact info, web link, logo, and more, click here
100LL
SS $5.40 
 Updated 13-Sep-2021
 
   1 read write
SS=Self service
Update Fuel Prices
 

Would you like to see your business listed on this page?

 If your business provides an interesting product or service to pilots, flight crews, aircraft, or users of the Freeway Airport, you should consider listing it here.  To start the listing process, click on the button below
 
Add a business
 

Other Pages about Freeway Airport

www.freewayaviation.com
 
Update a link
 
Copyright © AirNav, LLC. All rights reserved. Privacy Policy  Contact